Showing default

TRANSIT 5E 3, 705

Orbit data source: Space-Track

TRANSIT 5E 3, 705 is a payload satellite owned by USN BuWeps (US) in LEO that was launched on Thu, 05 Dec 1963 UTC via a THOR ABLESTAR launch vehicle from the Air Force Western Test Range (AFWTR). Payload-class satellites include a variety of spacecraft equipped with specific instruments for various scientific and technological missions. These include communications satellites like Starlink; space stations such as the ISS; scientific satellites like the Hubble; Earth observation satellites from companies like Planet Labs, Umbra, and HawkEye 360; GPS; miniature CubeSats for education and research; and military/defense satellites.

Loading next visibility...
Identifier
705, 1963-049C
Orbit
LEO
Country
Flag of USUS
Related business
Manufacturer
APL
Mission
Spacecraft
Bus & Motor
TRANSIT 5, Unknown motor
Mass
52 kg wet, 52 kg dry
Launch date (UTC)
1963-12-05 (62 years ago)
Launch vehicle
THOR ABLESTAR
Launch site
Air Force Western Test Range (AFWTR)
Object type
Payload
Rocket body
Debris
Shape & HBR
Unknown
Radar Cross Section
Large (>1 m²)

Expand to show TLE details & history
Last TLE update: 22 hours ago

TLE from 22 hours ago
0 TRANSIT 5E 3
1 00705U 63049C   25315.31857549  .00000140  00000-0  21221-3 0  9998
2 00705  89.9216  72.1475 0034585 159.2757 254.2524 13.47642238 42758
Epoch: 2025-11-11T07:38Z
TLE epoch observation values (Epoch: 2025-11-11T07:38:44.922Z)
Latitude
53.24104°
Longitude
-93.1421°
Altitude
1,096.806 km
Speed
7.305 km/s
True Right ascension
04h 49m 00s
True Declination
53° 05' 01"
Sunlit
Object was in full shadow at epoch
Visualization orbit readout
Latitude
Unknown
Longitude
Unknown
Altitude
Unknown
Speed
Unknown
Apparent Right ascension
Unknown
Apparent Declination
Unknown
Sunlit
N/A
Visualization observer readout
Local Sidereal Time
02:28:24
Azimuth
Unknown
Elevation
Unknown
Doppler factor
Unknown
Orbital elements
Apogee altitude
1,103.786 km
Perigee altitude
1,052.212 km
Semi-major axis
7,456.136 km
Eccentricity
0.00346
Inclination
89.9216°
RAAN
72.1475°
Arg. of periapsis
159.2757°
True anomaly
253.87141°
Mean anomaly
254.2524°
Eccentric anomaly
254.06186°
Mean motion
3.37111 °/min
Orbital period
106.79 mins
BSTAR
0.00021221
Loading maneuver chart data...
Computing Atmospheric mass density...
Loading historical data...
Loading historical data...
Loading historical data...
Loading historical data...
Loading historical data...
Loading historical data...
Loading historical data...

Documentation

Showing up to 5 results
|